TimePDT,TemperatureF,Dew PointF,Humidity,Sea Level PressureIn,VisibilityMPH,Wind Direction,Wind SpeedMPH,Gust SpeedMPH,PrecipitationIn,Events,Conditions,WindDirDegrees,DateUTC
12:53 AM,54.0,48.9,83,30.00,10.0,NW,8.1,-,N/A,,Clear,310,2013-06-16 07:53:00
1:53 AM,54.0,48.9,83,30.00,10.0,WNW,6.9,-,N/A,,Clear,300,2013-06-16 08:53:00
2:53 AM,53.1,48.9,86,30.00,10.0,NW,6.9,-,N/A,,Clear,320,2013-06-16 09:53:00
3:53 AM,53.1,48.9,86,30.00,10.0,WNW,6.9,-,N/A,,Clear,300,2013-06-16 10:53:00
4:53 AM,53.1,48.9,86,30.01,10.0,NW,5.8,-,N/A,,Clear,310,2013-06-16 11:53:00
5:53 AM,53.1,48.9,86,30.02,10.0,WNW,3.5,-,N/A,,Clear,300,2013-06-16 12:53:00
6:53 AM,55.0,50.0,83,30.03,10.0,WNW,6.9,-,N/A,,Clear,300,2013-06-16 13:53:00
7:53 AM,57.9,50.0,75,30.04,10.0,WNW,3.5,-,N/A,,Clear,290,2013-06-16 14:53:00
8:53 AM,61.0,50.0,67,30.06,10.0,NW,4.6,-,N/A,,Clear,310,2013-06-16 15:53:00
9:53 AM,66.0,48.9,54,30.06,10.0,SW,3.5,-,N/A,,Clear,230,2013-06-16 16:53:00
10:53 AM,72.0,46.9,41,30.06,10.0,WSW,10.4,-,N/A,,Clear,250,2013-06-16 17:53:00
11:53 AM,75.9,45.0,33,30.06,10.0,West,8.1,-,N/A,,Clear,270,2013-06-16 18:53:00
12:53 PM,80.1,45.0,29,30.05,10.0,West,9.2,-,N/A,,Clear,270,2013-06-16 19:53:00
1:53 PM,82.9,43.0,24,30.04,10.0,West,11.5,-,N/A,,Clear,260,2013-06-16 20:53:00
2:53 PM,84.9,43.0,23,30.03,10.0,West,15.0,-,N/A,,Clear,270,2013-06-16 21:53:00
3:53 PM,82.9,43.0,24,30.04,10.0,WSW,13.8,-,N/A,,Clear,250,2013-06-16 22:53:00
4:53 PM,81.0,44.1,27,30.04,10.0,West,13.8,-,N/A,,Clear,280,2013-06-16 23:53:00
5:53 PM,75.9,51.1,42,30.04,10.0,South,11.5,-,N/A,,Clear,190,2013-06-17 00:53:00
6:53 PM,73.0,51.1,46,30.04,10.0,SW,9.2,-,N/A,,Clear,220,2013-06-17 01:53:00
7:53 PM,68.0,52.0,56,30.06,10.0,SSW,10.4,-,N/A,,Clear,200,2013-06-17 02:53:00
8:53 PM,64.0,51.1,63,30.06,10.0,SW,8.1,-,N/A,,Clear,220,2013-06-17 03:53:00
9:53 PM,61.0,51.1,70,30.07,10.0,SSW,5.8,-,N/A,,Clear,210,2013-06-17 04:53:00
10:53 PM,57.9,50.0,75,30.08,10.0,WNW,4.6,-,N/A,,Clear,290,2013-06-17 05:53:00
11:53 PM,57.9,50.0,75,30.08,10.0,WSW,5.8,-,N/A,,Clear,250,2013-06-17 06:53:00